This demonstration page uses our WeatherBlox Daily Observations layout. Learn more.

Left ArrowRight Arrow

39.01783, -85.05884

Hourly Observations for May 12, 2021

Temp ( °F °C ) Dew Point ( °F °C ) Humidity (%) Winds ( mph kmh ) Pressure ( in mb ) Visibility ( mi km ) Precip ( " mm )
12:52 am 00:52 Cloudy 50 10 29 -1.7 44 44 NE 8 13 30.32 1027 10 16.0934 N/A
1:52 am 01:52 Cloudy 49 9.4 29 -1.7 46 46 NNE 10 17 30.31 1026 10 16.0934 N/A
2:52 am 02:52 Cloudy 47 8.3 32 undefined 56 56 N 6 9 30.32 1027 10 16.0934 N/A
3:52 am 03:52 Cloudy 46 7.8 33 0.6 61 61 NNW 7 11 30.31 1027 10 16.0934 N/A
4:52 am 04:52 Mostly Cloudy 46 7.8 30 -1.1 54 54 NE 9 15 30.33 1027 10 16.0934 N/A
5:52 am 05:52 Partly Cloudy 44 6.7 31 -0.6 60 60 NNE 10 17 30.35 1028 10 16.0934 N/A
6:52 am 06:52 Mostly Sunny 43 6.1 32 undefined 65 65 NNE 8 13 30.36 1028 10 16.0934 N/A
7:52 am 07:52 Sunny 45 7.2 33 0.6 63 63 NE 8 13 30.37 1029 10 16.0934 N/A
8:52 am 08:52 Sunny 50 10 33 0.6 52 52 NNE 10 17 30.38 1029 10 16.0934 N/A
9:52 am 09:52 Sunny 54 12.2 33 0.6 45 45 NE 8 13 30.39 1029 10 16.0934 N/A
10:52 am 10:52 Sunny 56 13.3 31 -0.6 39 39 NE 16 26 30.37 1029 9 14.48406 N/A
11:52 am 11:52 Mostly Sunny 57 13.9 32 undefined 39 39 NNE 14 22 30.37 1028 9 14.48406 N/A
12:52 pm 12:52 Mostly Sunny 59 15 32 undefined 36 36 ENE 13 20 30.37 1028 10 16.0934 N/A
1:52 pm 13:52 Mostly Sunny 60 15.6 32 undefined 35 35 NE 9 15 30.35 1028 10 16.0934 N/A
2:52 pm 14:52 Partly Cloudy 61 16.1 33 0.6 35 35 NNE 7 11 30.34 1027 10 16.0934 N/A
3:52 pm 15:52 Partly Cloudy 63 17.2 33 0.6 33 33 ENE 9 15 30.33 1027 10 16.0934 N/A
4:52 pm 16:52 Partly Cloudy 62 16.7 31 -0.6 31 31 NNE 12 19 30.31 1027 10 16.0934 N/A
5:52 pm 17:52 Partly Cloudy 63 17.2 31 -0.6 30 30 N 10 17 30.3 1026 10 16.0934 N/A
6:52 pm 18:52 Mostly Sunny 61 16.1 29 -1.7 30 30 NE 12 19 30.3 1026 10 16.0934 N/A
7:52 pm 19:52 Mostly Sunny 60 15.6 28 -2.2 30 30 NE 13 20 30.29 1026 10 16.0934 N/A
8:52 pm 20:52 Mostly Clear 58 14.4 30 -1.1 35 35 NNE 8 13 30.31 1027 10 16.0934 N/A
9:52 pm 21:52 Mostly Clear 56 13.3 31 -0.6 39 39 NE 7 11 30.33 1027 10 16.0934 N/A
10:52 pm 22:52 Mostly Clear 55 12.8 32 undefined 42 42 NNE 7 11 30.35 1028 10 16.0934 N/A
11:52 pm 23:52 Clear 53 11.7 33 0.6 47 47 NE 8 13 30.35 1028 10 16.0934 N/A

Powered by AerisWeather